Weather History for Jefferson, GA

Change the Weather History Date:

Sunday, May 5, 2013

  Actual Average (KGVL) Record (KGVL)
Temperature  
Mean Temperature 56 °F 65 °F  
Max Temperature 60 °F 76 °F 92 °F (1952)
Min Temperature 51 °F 55 °F 33 °F (1940)
Degree Days  
Heating Degree Days 10    
Cooling Degree Days 0 2  
Month to date cooling degree days 10  
Year to date cooling degree days 49  
Growing Degree Days 6 (Base 50)    
Moisture  
Dew Point 53 °F    
Average Humidity 93    
Maximum Humidity 100    
Minimum Humidity 82    
Precipitation  
Precipitation 0.00 in 0.13 in 1.76 in (1942)
Month to date precipitation 0.64  
Year to date precipitation 19.52  
Sea Level Pressure  
Sea Level Pressure 29.82 in    
Wind  
Wind Speed 5 mph (ENE)    
Max Wind Speed 10 mph    
Max Gust Speed 21 mph    
Visibility 6 miles    
Events Rain , Thunderstorm    
T = Trace of Precipitation, MM = Missing Value Source: NWS Daily Summary

Daily Weather History Graph

Daily Weather History Graph

Search for Another Location

Airport:

Trip Planner

Search our weather history database for the weather conditions in past years. The results will help you decide how hot, cold, wet, or windy it might be!

Date:

Astronomy

May. 05, 2013 Rise Set
Actual Time 6:40 AM EDT 8:21 PM EDT
Civil Twilight 6:13 AM EDT 8:48 PM EDT
Nautical Twilight 5:41 AM EDT 9:21 PM EDT
Astronomical Twilight 5:06 AM EDT 9:55 PM EDT
Moon 3:59 AM EDT (5/5) 4:30 PM EDT (5/5)
Length of Visible Light 14h 35m
Length of Day
13h 41m
Waning Crescent, 18% of the Moon is Illuminated
May 5
Waning Crescent
May 9
New
May 18
First Quarter
May 25
Full
May 31
Last Quarter

Hourly Weather History & Observations

Time (EDT) Temp. Dew Point Humidity Pressure Visibility Wind Dir Wind Speed Gust Speed Precip Events Conditions
12:15 AM 53.6 °F 51.8 °F 94% 29.87 in 7.0 mi East 6.9 mph - N/A Rain Light Rain
12:35 AM 53.6 °F 51.8 °F 94% 29.87 in 5.0 mi East 6.9 mph - N/A Rain Light Rain
12:55 AM 53.6 °F 51.8 °F 94% 29.87 in 5.0 mi East 9.2 mph - N/A Rain Rain
1:15 AM 53.6 °F 51.8 °F 94% 29.86 in 5.0 mi East 5.8 mph - N/A Rain Light Rain
1:35 AM 53.6 °F 51.8 °F 94% 29.86 in 7.0 mi East 8.1 mph 18.4 mph N/A Rain Heavy Rain
1:55 AM 53.6 °F 51.8 °F 94% 29.85 in 5.0 mi East 6.9 mph - N/A Rain Heavy Rain
2:15 AM 53.6 °F 51.8 °F 94% 29.84 in 10.0 mi East 6.9 mph - N/A Rain Rain
2:35 AM 53.6 °F 51.8 °F 94% 29.84 in 4.0 mi East 10.4 mph 17.3 mph N/A Rain Rain
2:55 AM 53.6 °F 51.8 °F 94% 29.82 in 4.0 mi East 6.9 mph 19.6 mph N/A Rain Rain
3:15 AM 53.6 °F 51.8 °F 94% 29.82 in 7.0 mi East 8.1 mph - N/A Rain Rain
3:35 AM 53.6 °F 51.8 °F 94% 29.82 in 7.0 mi East 9.2 mph 19.6 mph N/A Rain Heavy Rain
3:55 AM 53.6 °F 51.8 °F 94% 29.81 in 10.0 mi East 9.2 mph - N/A Rain Rain
4:15 AM 53.6 °F 51.8 °F 94% 29.81 in 7.0 mi East 8.1 mph 17.3 mph N/A Rain Rain
4:35 AM 53.6 °F 51.8 °F 94% 29.80 in 7.0 mi East 8.1 mph 16.1 mph N/A Rain Rain
4:55 AM 53.6 °F 51.8 °F 94% 29.80 in 7.0 mi East 8.1 mph 16.1 mph N/A Rain Rain
5:15 AM 53.6 °F 51.8 °F 94% 29.80 in 5.0 mi East 4.6 mph - N/A Rain Light Rain
5:35 AM 53.6 °F 51.8 °F 94% 29.80 in 7.0 mi East 4.6 mph - N/A Rain Rain
5:55 AM 53.6 °F 51.8 °F 94% 29.80 in 5.0 mi East 4.6 mph - N/A Rain Rain
6:15 AM 53.6 °F 51.8 °F 94% 29.81 in 7.0 mi East 5.8 mph - N/A Rain Heavy Rain
6:35 AM 53.6 °F 51.8 °F 94% 29.81 in 5.0 mi East 4.6 mph - N/A Rain Rain
6:55 AM 53.6 °F 51.8 °F 94% 29.82 in 5.0 mi Calm Calm - N/A Rain Light Rain
7:15 AM 53.6 °F 51.8 °F 94% 29.82 in 5.0 mi East 5.8 mph - N/A Rain Light Rain
7:35 AM 53.6 °F 51.8 °F 94% 29.81 in 4.0 mi East 4.6 mph - N/A Rain Rain
7:55 AM 53.6 °F 51.8 °F 94% 29.82 in 3.0 mi East 8.1 mph 18.4 mph N/A Rain Rain
8:15 AM 53.6 °F 51.8 °F 94% 29.82 in 3.0 mi Calm Calm - N/A Rain Heavy Rain
8:35 AM 53.6 °F 51.8 °F 94% 29.82 in 5.0 mi ENE 3.5 mph - N/A   Drizzle
8:55 AM 53.6 °F 51.8 °F 94% 29.82 in 5.0 mi East 3.5 mph - N/A   Drizzle
9:15 AM 53.6 °F 51.8 °F 94% 29.82 in 5.0 mi ENE 4.6 mph - N/A   Drizzle
9:35 AM 53.6 °F 51.8 °F 94% 29.82 in 4.0 mi ENE 4.6 mph - N/A   Drizzle
9:55 AM 53.6 °F 51.8 °F 94% 29.83 in 4.0 mi East 4.6 mph - N/A   Drizzle
10:15 AM 53.6 °F 51.8 °F 94% 29.83 in 5.0 mi ENE 4.6 mph - N/A   Drizzle
10:35 AM 53.6 °F 51.8 °F 94% 29.84 in 3.0 mi East 4.6 mph - N/A Rain Rain
10:55 AM 53.6 °F 53.6 °F 100% 29.83 in 2.5 mi East 5.8 mph - N/A   Drizzle
11:15 AM 53.6 °F 51.8 °F 94% 29.84 in 2.5 mi East 3.5 mph - N/A   Drizzle
11:35 AM 53.6 °F 53.6 °F 100% 29.85 in 2.0 mi Calm Calm - N/A   Drizzle
11:55 AM 53.6 °F 53.6 °F 100% 29.85 in 2.0 mi Calm Calm - N/A Rain Rain
12:15 PM 55.4 °F 53.6 °F 94% 29.85 in 2.0 mi ENE 4.6 mph - N/A   Drizzle
12:35 PM 55.4 °F 53.6 °F 94% 29.84 in 2.5 mi ENE 3.5 mph - N/A   Light Drizzle
12:55 PM 55.4 °F 53.6 °F 94% 29.84 in 3.0 mi NE 3.5 mph - N/A   Overcast
1:15 PM 55.4 °F 53.6 °F 94% 29.84 in 2.5 mi Calm Calm - N/A Rain Light Rain
1:35 PM 55.4 °F 53.6 °F 94% 29.84 in 1.8 mi Calm Calm - N/A   Drizzle
1:55 PM 55.4 °F 53.6 °F 94% 29.84 in 2.0 mi NW 3.5 mph - N/A   Drizzle
2:15 PM 55.4 °F 53.6 °F 94% 29.84 in 2.5 mi Calm Calm - N/A   Light Drizzle
2:35 PM 57.2 °F 55.4 °F 94% 29.83 in 1.8 mi Calm Calm - N/A   Drizzle
2:55 PM 55.4 °F 55.4 °F 100% 29.84 in 2.5 mi Calm Calm - N/A   Light Drizzle
3:15 PM 57.2 °F 55.4 °F 94% 29.83 in 2.0 mi ENE 4.6 mph - N/A   Light Drizzle
3:35 PM 57.2 °F 55.4 °F 94% 29.82 in 2.5 mi Calm Calm - N/A   Overcast
3:55 PM 57.2 °F 55.4 °F 94% 29.82 in 7.0 mi Calm Calm - N/A   Overcast
4:15 PM 57.2 °F 55.4 °F 94% 29.82 in 10.0 mi Calm Calm - N/A   Overcast
4:35 PM 59.0 °F 55.4 °F 88% 29.81 in 10.0 mi NE 3.5 mph - N/A   Overcast
4:55 PM 59.0 °F 53.6 °F 82% 29.81 in 10.0 mi NE 3.5 mph - N/A   Overcast
5:15 PM 59.0 °F 55.4 °F 88% 29.81 in 10.0 mi NE 3.5 mph - N/A   Overcast
5:35 PM 59.0 °F 55.4 °F 88% 29.79 in 10.0 mi East 5.8 mph - N/A   Overcast
5:55 PM 60.8 °F 55.4 °F 82% 29.79 in 10.0 mi NE 4.6 mph - N/A   Mostly Cloudy
6:15 PM 59.0 °F 55.4 °F 88% 29.79 in 10.0 mi ENE 3.5 mph - N/A   Mostly Cloudy
6:55 PM 59.0 °F 53.6 °F 82% 29.78 in 10.0 mi East 3.5 mph - N/A   Overcast
7:15 PM 57.2 °F 53.6 °F 88% 29.78 in 10.0 mi Calm Calm - N/A   Mostly Cloudy
7:35 PM 57.2 °F 53.6 °F 88% 29.78 in 10.0 mi ENE 3.5 mph - N/A   Mostly Cloudy
7:55 PM 57.2 °F 53.6 °F 88% 29.77 in 10.0 mi East 3.5 mph - N/A   Overcast
8:15 PM 55.4 °F 53.6 °F 94% 29.78 in 10.0 mi East 3.5 mph - N/A   Overcast
8:35 PM 55.4 °F 53.6 °F 94% 29.78 in 10.0 mi Calm Calm - N/A Rain Light Rain
8:55 PM 55.4 °F 53.6 °F 94% 29.79 in 10.0 mi East 3.5 mph - N/A Rain Light Rain
9:15 PM 55.4 °F 53.6 °F 94% 29.78 in 10.0 mi ENE 3.5 mph - N/A   Light Drizzle
9:35 PM 55.4 °F 53.6 °F 94% 29.81 in 1.5 mi SSW 10.4 mph 20.7 mph N/A Rain , Thunderstorm Heavy Thunderstorms and Rain
9:55 PM 55.4 °F 53.6 °F 94% 29.81 in 10.0 mi SW 8.1 mph - N/A Rain , Thunderstorm Light Thunderstorms and Rain
10:15 PM 55.4 °F 51.8 °F 88% 29.81 in 10.0 mi West 9.2 mph - N/A   Drizzle
10:55 PM 51.8 °F 50.0 °F 94% 29.83 in 5.0 mi NW 9.2 mph 16.1 mph N/A Rain Rain
11:15 PM 51.8 °F 50.0 °F 94% 29.84 in 10.0 mi NW 9.2 mph - N/A Rain Rain
11:35 PM 51.8 °F 50.0 °F 94% 29.83 in 10.0 mi NW 4.6 mph - N/A Rain Light Rain
11:55 PM 51.8 °F 50.0 °F 94% 29.83 in 7.0 mi NW 3.5 mph - N/A Rain Light Rain